Tracking 19709 objects as of 21-Jun-2019
HD Live streaming from Space Station
objects crossing your sky now

FENGYUN 1C DEB

Track FENGYUN 1C DEB now!
10-day predictions


NORAD ID: 30420
Int'l Code: 1999-025AEK
Perigee: 533.2 km
Apogee: 764.7 km
Inclination: 98.9 °
Period: 97.6 minutes
Semi major axis: 7019 km
RCS: 0.046 m2 (small)
Launch date: May 10, 1999
Source: People's Republic of China (PRC)
Launch site: Taiyaun Space Center, China (TSC)

Note: This is SATELLITE DEBRIS
aabbcc
Your satellite tracking list
Your tracking list is empty




NASA's NSSDC Master Catalog

Two Line Element Set (TLE):
1 30420U 99025AEK 19171.25380559  .00000200  00000-0  32116-4 0  9999
2 30420  98.9180 267.9902 0164890  29.9266  22.1757 14.76046953663344
Source of the keplerian elements: AFSPC